Wadena, MN

2:03 AM CST on February 22, 2018 (GMT -0600)
Wadena Municipal

Weather History for KADC - January, 2013

Change the Weather History Date:

Saturday, January 12, 2013

  Actual Average Record
Temperature  
Mean Temperature 7 °F -  
Max Temperature 19 °F 12 °F 45 °F (1986)
Min Temperature -5 °F -4 °F -35 °F (1977)
Degree Days  
Heating Degree Days 58    
Moisture  
Dew Point -1 °F    
Average Humidity 82    
Maximum Humidity 100    
Minimum Humidity 66    
Precipitation  
Precipitation 0.00 in - - ()
Sea Level Pressure  
Sea Level Pressure 29.77 in    
Wind  
Wind Speed 13 mph (WNW)    
Max Wind Speed 18 mph    
Max Gust Speed 25 mph    
Visibility 7 miles    
Events Snow    
Averages and records for this station are not official NWS values.
T = Trace of Precipitation, MM = Missing Value Source: NWS Daily Summary

Daily Weather History Graph

Daily Weather History Graph

Search for Another Location

Airport or City:

Trip Planner

Search our weather history database for the weather conditions in past years. The results will help you decide how hot, cold, wet, or windy it might be!

Date:

Astronomy

Jan. 12, 2013 Rise Set
Actual Time 8:01 AM CST 4:57 PM CST
Civil Twilight 7:27 AM CST 5:31 PM CST
Nautical Twilight 6:50 AM CST 6:08 PM CST
Astronomical Twilight 6:13 AM CST 6:45 PM CST
Moon 8:15 AM CST (1/12) 6:34 PM CST (1/12)
Length of Visible Light 10h 03m
Length of Day
8h 55m
New Moon, 1% of the Moon is Illuminated
Jan 12
New Moon
Jan 18
First Quarter
Jan 26
Full
Feb 3
Last Quarter
Feb 10
New

Hourly Weather History & Observations

Time (CST) Temp. Windchill Dew Point Humidity Pressure Visibility Wind Dir Wind Speed Gust Speed Precip Events Conditions
12:43 AM 19.4 °F 6.6 °F 17.6 °F 93% 29.33 in 10.0 mi WNW 12.7 mph - N/A   Overcast
12:52 AM 19.4 °F 7.9 °F 17.6 °F 93% 29.33 in 10.0 mi WNW 10.4 mph - N/A   Overcast
1:14 AM 19.4 °F 7.9 °F 17.6 °F 93% 29.34 in 5.0 mi West 10.4 mph 16.1 mph N/A   Overcast
1:35 AM 17.6 °F 4.3 °F 17.6 °F 100% 29.36 in 7.0 mi West 12.7 mph - N/A   Overcast
1:53 AM 17.6 °F 5.0 °F 17.6 °F 100% 29.37 in 10.0 mi West 11.5 mph 18.4 mph N/A   Overcast
2:15 AM 17.6 °F 2.2 °F 15.8 °F 93% 29.39 in 10.0 mi West 17.3 mph 21.9 mph N/A Snow Light Snow
2:35 AM 15.8 °F 0.3 °F 14.0 °F 93% 29.41 in 4.0 mi West 16.1 mph 23.0 mph N/A   Overcast
2:53 AM 15.8 °F 1.4 °F 12.2 °F 86% 29.42 in 5.0 mi West 13.8 mph 18.4 mph N/A Snow Light Snow
3:15 AM 14.0 °F -3.0 °F 12.2 °F 93% 29.43 in 7.0 mi WNW 18.4 mph 23.0 mph N/A   Overcast
3:35 AM 12.2 °F -4.3 °F 10.4 °F 92% 29.44 in 1.5 mi WNW 16.1 mph 25.3 mph N/A Snow Light Snow
3:53 AM 12.2 °F -3.7 °F 10.4 °F 92% 29.45 in 2.0 mi WNW 15.0 mph 24.2 mph N/A Snow Light Snow
4:15 AM 12.2 °F -4.3 °F 8.6 °F 85% 29.47 in 5.0 mi WNW 16.1 mph 25.3 mph N/A Snow Light Snow
4:35 AM 10.4 °F -6.0 °F 8.6 °F 92% 29.49 in 3.0 mi WNW 15.0 mph 23.0 mph N/A Snow Light Snow
4:53 AM 8.6 °F -8.3 °F 6.8 °F 92% 29.51 in 2.0 mi West 15.0 mph 21.9 mph N/A Snow Light Snow
5:15 AM 8.6 °F -8.3 °F 6.8 °F 92% 29.53 in 2.5 mi West 15.0 mph 21.9 mph N/A Snow Light Snow
5:35 AM 8.6 °F -8.3 °F 5.0 °F 85% 29.55 in 3.0 mi West 15.0 mph 21.9 mph N/A Snow Light Snow
5:53 AM 6.8 °F -10.7 °F 3.2 °F 85% 29.56 in 4.0 mi WNW 15.0 mph 24.2 mph N/A Snow Light Snow
6:15 AM 6.8 °F -10.0 °F 3.2 °F 85% 29.59 in 5.0 mi West 13.8 mph 23.0 mph N/A Snow Light Snow
6:35 AM 6.8 °F -9.3 °F 1.4 °F 79% 29.61 in 4.0 mi West 12.7 mph 18.4 mph N/A Snow Light Snow
6:53 AM 5.0 °F -13.0 °F 1.4 °F 85% 29.62 in 5.0 mi West 15.0 mph 21.9 mph N/A Snow Light Snow
7:15 AM 5.0 °F -14.2 °F 1.4 °F 85% 29.65 in 7.0 mi WNW 17.3 mph 23.0 mph N/A   Overcast
7:35 AM 3.2 °F -13.1 °F -0.4 °F 85% 29.66 in 7.0 mi WNW 11.5 mph - N/A   Overcast
8:15 AM 1.4 °F -16.9 °F -2.2 °F 85% 29.68 in 7.0 mi WNW 13.8 mph - N/A   Overcast
8:35 AM 1.4 °F -16.9 °F -2.2 °F 85% 29.70 in 10.0 mi WNW 13.8 mph 21.9 mph N/A   Scattered Clouds
8:53 AM 1.4 °F -15.3 °F -2.2 °F 85% 29.72 in 10.0 mi WNW 11.5 mph 19.6 mph N/A   Scattered Clouds
9:15 AM 1.4 °F -15.3 °F -2.2 °F 85% 29.74 in 7.0 mi WNW 11.5 mph 19.6 mph N/A   Mostly Cloudy
9:35 AM 1.4 °F -16.9 °F -2.2 °F 85% 29.75 in 10.0 mi WNW 13.8 mph 19.6 mph N/A   Scattered Clouds
9:53 AM 1.4 °F -18.8 °F -4.0 °F 78% 29.76 in 10.0 mi WNW 17.3 mph 21.9 mph N/A   Scattered Clouds
10:15 AM 1.4 °F -16.9 °F -4.0 °F 78% 29.77 in 10.0 mi WNW 13.8 mph 17.3 mph N/A   Scattered Clouds
10:35 AM 3.2 °F -13.1 °F -2.2 °F 78% 29.79 in 7.0 mi WNW 11.5 mph - N/A   Mostly Cloudy
11:15 AM 3.2 °F -16.5 °F -2.2 °F 78% 29.80 in 7.0 mi WNW 17.3 mph 21.9 mph N/A   Mostly Cloudy
12:15 PM 3.2 °F -12.2 °F -4.0 °F 72% 29.83 in 10.0 mi West 10.4 mph 17.3 mph N/A   Mostly Cloudy
12:35 PM 3.2 °F -13.9 °F -4.0 °F 72% 29.85 in 7.0 mi West 12.7 mph 19.6 mph N/A   Overcast
12:53 PM 1.4 °F -16.1 °F -4.0 °F 78% 29.85 in 7.0 mi West 12.7 mph - N/A   Overcast
1:35 PM 1.4 °F -17.6 °F -4.0 °F 78% 29.87 in 7.0 mi WNW 15.0 mph 18.4 mph N/A   Mostly Cloudy
1:53 PM 3.2 °F -12.2 °F -5.8 °F 66% 29.88 in 7.0 mi West 10.4 mph - N/A   Mostly Cloudy
2:15 PM 1.4 °F -16.1 °F -5.8 °F 72% 29.89 in 7.0 mi West 12.7 mph - N/A   Mostly Cloudy
2:35 PM 1.4 °F -16.9 °F -5.8 °F 72% 29.90 in 5.0 mi WNW 13.8 mph 19.6 mph N/A   Haze
2:53 PM 1.4 °F -17.6 °F -5.8 °F 72% 29.90 in 10.0 mi WNW 15.0 mph 23.0 mph N/A   Scattered Clouds
3:15 PM -0.4 °F -17.6 °F -5.8 °F 78% 29.91 in 10.0 mi WNW 11.5 mph 20.7 mph N/A   Clear
3:35 PM -0.4 °F -20.5 °F -5.8 °F 78% 29.92 in 10.0 mi WNW 16.1 mph 21.9 mph N/A   Clear
3:53 PM -0.4 °F -17.6 °F -7.6 °F 72% 29.93 in 7.0 mi West 11.5 mph 18.4 mph N/A   Scattered Clouds
4:15 PM -0.4 °F -19.9 °F -7.6 °F 72% 29.93 in 7.0 mi WNW 15.0 mph 19.6 mph N/A   Mostly Cloudy
4:35 PM -0.4 °F -18.4 °F -7.6 °F 72% 29.94 in 4.0 mi NW 12.7 mph 17.3 mph N/A   Haze
4:53 PM -2.2 °F -21.5 °F -7.6 °F 78% 29.95 in 10.0 mi WNW 13.8 mph 19.6 mph N/A   Scattered Clouds
5:15 PM -2.2 °F -22.9 °F -9.4 °F 71% 29.95 in 10.0 mi NW 16.1 mph 19.6 mph N/A   Clear
5:35 PM -2.2 °F -23.5 °F -9.4 °F 71% 29.95 in 10.0 mi NW 17.3 mph 21.9 mph N/A   Clear
5:53 PM -4.0 °F -22.1 °F -9.4 °F 78% 29.96 in 10.0 mi WNW 11.5 mph - N/A   Clear
6:15 PM -4.0 °F -22.1 °F -9.4 °F 78% 29.97 in 10.0 mi NW 11.5 mph - N/A   Clear
6:35 PM -4.0 °F -23.0 °F -9.4 °F 78% 29.97 in 10.0 mi NW 12.7 mph - N/A   Clear
6:53 PM -4.0 °F -22.1 °F -9.4 °F 78% 29.97 in 10.0 mi NW 11.5 mph - N/A   Clear
7:15 PM -4.0 °F -21.2 °F -9.4 °F 78% 29.97 in 10.0 mi WNW 10.4 mph - N/A   Clear
7:35 PM -5.8 °F -22.4 °F -9.4 °F 84% 29.99 in 10.0 mi WNW 9.2 mph - N/A   Clear
7:53 PM -5.8 °F -21.2 °F -9.4 °F 84% 30.00 in 10.0 mi West 8.1 mph - N/A   Scattered Clouds
8:15 PM -5.8 °F -19.9 °F -9.4 °F 84% 30.02 in 10.0 mi WNW 6.9 mph - N/A   Scattered Clouds
8:35 PM -5.8 °F -22.4 °F -9.4 °F 84% 30.03 in 10.0 mi WNW 9.2 mph - N/A   Mostly Cloudy
8:53 PM -5.8 °F -21.2 °F -9.4 °F 84% 30.04 in 7.0 mi WNW 8.1 mph - N/A   Overcast
9:14 PM -5.8 °F -22.4 °F -9.4 °F 84% 30.04 in 3.0 mi WNW 9.2 mph - N/A Snow Light Snow
9:35 PM -5.8 °F -18.4 °F -9.4 °F 84% 30.05 in 4.0 mi WNW 5.8 mph - N/A Snow Light Snow
9:53 PM -5.8 °F -24.4 °F -9.4 °F 84% 30.05 in 7.0 mi WNW 11.5 mph 16.1 mph N/A Snow Light Snow
10:15 PM -5.8 °F -22.4 °F -11.2 °F 77% 30.05 in 7.0 mi WNW 9.2 mph - N/A   Overcast
10:35 PM -5.8 °F -24.4 °F -11.2 °F 77% 30.05 in 10.0 mi NW 11.5 mph - N/A   Mostly Cloudy
10:53 PM -5.8 °F -24.4 °F -11.2 °F 77% 30.06 in 10.0 mi NW 11.5 mph - N/A   Mostly Cloudy
10:58 PM -5.8 °F -24.4 °F -11.2 °F 77% 30.05 in 10.0 mi NW 11.5 mph - N/A   Mostly Cloudy
11:21 PM -5.8 °F -24.4 °F -11.2 °F 77% 30.05 in 7.0 mi NW 11.5 mph - N/A   Overcast